Location: Basse Occidentale du Courleau
(48.3833°N, 4.8333°W)
Time: 09:49:37
(UTC+00:00)

USA 267 - Pass Details

Date: 05 July 2020
Orbit: 1102 x 1106 km, 123.0° (Epoch: 03 August)

Event Time Altitude Azimuth Distance (km) Brightness Sun altitude
Exits shadow 21:33:58 - 104° (ESE) 3,549 5.4 -9.4°
Reaches altitude 10° 21:35:31 10° 102° (ESE) 2,959 5.1 -9.6°
Maximum altitude 21:41:56 62° 24° (NNE) 1,228 3.7 -10.2°
Drops below altitude 10° 21:48:22 10° 306° (NW) 2,969 6.8 -10.9°
Sets 21:50:53 0° 303° (WNW) 3,929 7.6 -11.1°
